TimeCDT,TemperatureF,Dew PointF,Humidity,Sea Level PressureIn,VisibilityMPH,Wind Direction,Wind SpeedMPH,Gust SpeedMPH,PrecipitationIn,Events,Conditions,WindDirDegrees,DateUTC
12:19 AM,51.8,48.2,88,30.32,10.0,Calm,Calm,-,N/A,,Clear,0,2013-05-25 05:19:00
12:39 AM,51.8,48.2,88,30.32,10.0,Calm,Calm,-,N/A,,Clear,0,2013-05-25 05:39:00
12:59 AM,51.8,50.0,94,30.31,10.0,Calm,Calm,-,N/A,,Clear,0,2013-05-25 05:59:00
1:19 AM,51.8,48.2,88,30.31,10.0,Calm,Calm,-,N/A,,Clear,0,2013-05-25 06:19:00
1:39 AM,50.0,48.2,94,30.30,10.0,Calm,Calm,-,N/A,,Clear,0,2013-05-25 06:39:00
1:59 AM,50.0,48.2,94,30.30,10.0,North,3.5,-,N/A,,Clear,360,2013-05-25 06:59:00
2:19 AM,48.2,46.4,93,30.30,10.0,North,3.5,-,N/A,,Clear,350,2013-05-25 07:19:00
2:39 AM,50.0,48.2,94,30.30,10.0,Calm,Calm,-,N/A,,Clear,0,2013-05-25 07:39:00
2:59 AM,50.0,48.2,94,30.28,10.0,Calm,Calm,-,N/A,,Clear,0,2013-05-25 07:59:00
3:19 AM,50.0,48.2,94,30.29,10.0,Calm,Calm,-,N/A,,Clear,0,2013-05-25 08:19:00
3:39 AM,48.2,48.2,100,30.28,10.0,Calm,Calm,-,N/A,,Clear,0,2013-05-25 08:39:00
3:59 AM,48.2,46.4,93,30.27,10.0,Calm,Calm,-,N/A,,Clear,0,2013-05-25 08:59:00
4:19 AM,48.2,48.2,100,30.27,10.0,SSE,3.5,-,N/A,,Clear,160,2013-05-25 09:19:00
4:39 AM,48.2,46.4,93,30.29,10.0,West,3.5,-,N/A,,Clear,260,2013-05-25 09:39:00
4:59 AM,48.2,46.4,93,30.30,10.0,West,3.5,-,N/A,,Clear,270,2013-05-25 09:59:00
5:19 AM,46.4,46.4,100,30.29,10.0,Calm,Calm,-,N/A,,Clear,0,2013-05-25 10:19:00
5:39 AM,46.4,44.6,93,30.30,10.0,North,4.6,-,N/A,,Clear,360,2013-05-25 10:39:00
5:59 AM,46.4,46.4,100,30.30,7.0,Calm,Calm,-,N/A,,Clear,0,2013-05-25 10:59:00
6:19 AM,48.2,48.2,100,30.31,7.0,Calm,Calm,-,N/A,,Clear,0,2013-05-25 11:19:00
6:39 AM,50.0,48.2,94,30.32,10.0,Calm,Calm,-,N/A,,Clear,0,2013-05-25 11:39:00
6:59 AM,51.8,50.0,94,30.33,7.0,Calm,Calm,-,N/A,,Clear,0,2013-05-25 11:59:00
7:19 AM,53.6,51.8,94,30.35,10.0,Calm,Calm,-,N/A,,Clear,0,2013-05-25 12:19:00
7:39 AM,53.6,51.8,94,30.36,10.0,Calm,Calm,-,N/A,,Clear,0,2013-05-25 12:39:00
7:59 AM,55.4,51.8,88,30.36,10.0,Calm,Calm,-,N/A,,Clear,0,2013-05-25 12:59:00
8:19 AM,55.4,51.8,88,30.36,10.0,Calm,Calm,-,N/A,,Clear,0,2013-05-25 13:19:00
8:39 AM,57.2,51.8,82,30.38,10.0,Calm,Calm,-,N/A,,Clear,0,2013-05-25 13:39:00
8:59 AM,60.8,53.6,77,30.38,10.0,Calm,Calm,-,N/A,,Clear,0,2013-05-25 13:59:00
9:19 AM,62.6,51.8,68,30.38,10.0,Calm,Calm,-,N/A,,Clear,0,2013-05-25 14:19:00
9:39 AM,64.4,51.8,64,30.37,10.0,Calm,Calm,-,N/A,,Clear,0,2013-05-25 14:39:00
9:59 AM,66.2,51.8,60,30.35,10.0,SE,3.5,-,N/A,,Clear,130,2013-05-25 14:59:00
10:19 AM,68.0,50.0,52,30.34,10.0,SSE,4.6,-,N/A,,Clear,150,2013-05-25 15:19:00
10:39 AM,68.0,48.2,49,30.33,10.0,SSE,6.9,-,N/A,,Clear,150,2013-05-25 15:39:00
10:59 AM,69.8,48.2,46,30.33,10.0,SSE,4.6,-,N/A,,Clear,150,2013-05-25 15:59:00
11:19 AM,69.8,48.2,46,30.34,10.0,SSE,3.5,-,N/A,,Clear,160,2013-05-25 16:19:00
11:39 AM,71.6,44.6,38,30.34,10.0,Calm,Calm,-,N/A,,Clear,0,2013-05-25 16:39:00
11:59 AM,71.6,46.4,41,30.33,10.0,South,5.8,-,N/A,,Clear,170,2013-05-25 16:59:00
12:19 PM,71.6,46.4,41,30.33,10.0,Calm,Calm,-,N/A,,Clear,0,2013-05-25 17:19:00
12:39 PM,71.6,48.2,43,30.33,10.0,East,5.8,-,N/A,,Clear,100,2013-05-25 17:39:00
12:59 PM,73.4,48.2,41,30.32,10.0,SSE,5.8,-,N/A,,Clear,160,2013-05-25 17:59:00
1:19 PM,73.4,46.4,38,30.31,10.0,SE,4.6,-,N/A,,Clear,130,2013-05-25 18:19:00
1:39 PM,71.6,46.4,41,30.31,10.0,East,6.9,-,N/A,,Clear,90,2013-05-25 18:39:00
1:59 PM,73.4,46.4,38,30.30,10.0,East,3.5,-,N/A,,Clear,80,2013-05-25 18:59:00
2:19 PM,73.4,46.4,38,30.30,10.0,East,5.8,-,N/A,,Clear,100,2013-05-25 19:19:00
2:39 PM,73.4,48.2,41,30.30,10.0,East,5.8,-,N/A,,Clear,90,2013-05-25 19:39:00
2:59 PM,75.2,46.4,36,30.29,10.0,East,8.1,-,N/A,,Clear,80,2013-05-25 19:59:00
3:19 PM,73.4,46.4,38,30.28,10.0,East,6.9,-,N/A,,Clear,80,2013-05-25 20:19:00
3:39 PM,73.4,46.4,38,30.28,10.0,ENE,3.5,-,N/A,,Clear,60,2013-05-25 20:39:00
3:59 PM,73.4,48.2,41,30.26,10.0,SE,6.9,-,N/A,,Clear,130,2013-05-25 20:59:00
4:22 PM,71.6,48.2,43,30.26,10.0,East,4.6,-,N/A,,Clear,80,2013-05-25 21:22:00
4:39 PM,71.6,51.8,50,30.24,10.0,East,8.1,-,N/A,,Clear,100,2013-05-25 21:39:00
5:00 PM,71.6,48.2,43,30.20,10.0,ESE,10.4,-,N/A,,Clear,120,2013-05-25 22:00:00
5:22 PM,71.6,46.4,41,30.20,10.0,SE,11.5,-,N/A,,Clear,130,2013-05-25 22:22:00
5:41 PM,73.4,48.2,41,30.21,10.0,SE,5.8,-,N/A,,Clear,130,2013-05-25 22:41:00
5:59 PM,73.4,46.4,38,30.20,10.0,SSE,8.1,-,N/A,,Clear,150,2013-05-25 22:59:00
6:19 PM,71.6,48.2,43,30.20,10.0,SSE,6.9,-,N/A,,Clear,160,2013-05-25 23:19:00
6:39 PM,71.6,48.2,43,30.17,10.0,SSE,8.1,-,N/A,,Clear,150,2013-05-25 23:39:00
6:59 PM,71.6,50.0,46,30.16,10.0,SSE,6.9,-,N/A,,Clear,150,2013-05-25 23:59:00
7:19 PM,69.8,51.8,53,30.16,10.0,SE,5.8,-,N/A,,Clear,140,2013-05-26 00:19:00
7:39 PM,69.8,55.4,60,30.18,10.0,ESE,4.6,-,N/A,,Clear,110,2013-05-26 00:39:00
7:59 PM,69.8,53.6,56,30.18,10.0,ENE,4.6,-,N/A,,Clear,60,2013-05-26 00:59:00
8:19 PM,69.8,51.8,53,30.19,10.0,ENE,5.8,-,N/A,,Scattered Clouds,60,2013-05-26 01:19:00
8:59 PM,68.0,51.8,56,30.20,10.0,NE,5.8,-,N/A,,Clear,40,2013-05-26 01:59:00
9:19 PM,68.0,51.8,56,30.20,10.0,ENE,6.9,-,N/A,,Scattered Clouds,70,2013-05-26 02:19:00
9:41 PM,66.2,51.8,60,30.20,10.0,ENE,6.9,-,N/A,,Scattered Clouds,60,2013-05-26 02:41:00
9:59 PM,66.2,53.6,64,30.22,10.0,NE,8.1,-,N/A,,Clear,50,2013-05-26 02:59:00
10:19 PM,66.2,51.8,60,30.22,10.0,ENE,10.4,-,N/A,,Clear,60,2013-05-26 03:19:00
10:39 PM,64.4,51.8,64,30.22,10.0,ENE,10.4,-,N/A,,Scattered Clouds,60,2013-05-26 03:39:00
10:59 PM,64.4,51.8,64,30.23,10.0,NE,10.4,-,N/A,,Scattered Clouds,50,2013-05-26 03:59:00
11:19 PM,64.4,51.8,64,30.22,10.0,NE,12.7,-,N/A,,Scattered Clouds,50,2013-05-26 04:19:00
11:39 PM,62.6,50.0,63,30.22,10.0,ENE,10.4,-,N/A,,Clear,60,2013-05-26 04:39:00
11:59 PM,62.6,48.2,59,30.22,10.0,NE,10.4,-,N/A,,Scattered Clouds,50,2013-05-26 04:59:00